[[{"header":{"parameterUnit":"m.s-1","parameterCategory":1,"la1":30.2991,"la2":30.254,"lo1":-89.0895,"lo2":-89.0444,"dy":0.0017,"dx":0.0017,"nx":28,"ny":28,"refTime":"2023-10-16T09:00:00:Z","depth":0,"parameterNumber":2,"parameterNumberName":"U-component_of_WINDS"},"data":[0,0,0,0,0,0,0,0,0,0,0,0,0,0,0,0,0,0,0,0,0,0,0,0,0,0,0,0,0,0,0,0,0,0,0,0,0,0,0,0,0,0,0,0,0,0,0,0,0,0,0,0,0,0,0,0,0,0,0.9728,0.9726,0,0.9564,0.9562,0.956,0.9418,0.9417,0.9415,0.9413,0.9242,0.9239,0.9236,0,0,0,0,0,0,0,0,0,0,0,0,0,0.9914,0.9911,0.9728,0.9726,0.9724,0.9564,0.9562,0.956,0.9418,0.9416,0.9415,0.9413,0.9243,0.9239,0.9236,0,0,0,0,0,0,0,0,0,0,0,0,0,0.98,0.991,0.9728,0.9634,0.9624,0.9565,0.9562,0.9559,0.9419,0.9416,0.9414,0.9412,0.9244,0.924,0.9235,0.9255,0,0,0.9221,0.9219,0,0,0,0,0,0,0,0,0.9806,0.9793,0.965,0.9641,0.9629,0.9509,0.9564,0.9457,0.9419,0.9497,0.9413,0.9411,0.9333,0.9321,0.9295,0.9247,0.9239,0.9221,0.9218,0.9216,0.9215,0,0,0,0,0,0,0,0.9814,0.9799,0.9663,0.9648,0.9635,0.9598,0.958,0.9543,0.943,0.949,0.9479,0.9462,0.9326,0.93,0.929,0.9237,0.9221,0.9217,0.9214,0.9212,0.9193,0.9195,0,0,0,0,0,0,0.9837,0.9807,0.9668,0.9658,0.9714,0.9597,0.9576,0.955,0.943,0.9409,0.9464,0.9456,0.9309,0.9295,0.9283,0.9295,0.9216,0.9212,0.9209,0.9191,0.9193,0.9196,0,0,0,0,0,0,0.9842,0.9826,0.9675,0.9729,0.9707,0.9597,0.9568,0.9548,0.9521,0.9411,0.9389,0.9458,0.9306,0.929,0.9262,0.9288,0.921,0.9205,0.9188,0.9192,0.9195,0.9323,0,0,0,0,0,0,0.9848,0.9829,0.9836,0.9731,0.9705,0.9658,0.957,0.9547,0.9514,0.9502,0.9399,0.938,0.9303,0.927,0.9258,0.928,0.9202,0.9185,0.919,0.9194,0.9316,0.933,0.9342,0,0,0,0,0,0.9855,0.9879,0.9838,0.9822,0.9712,0.966,0.9645,0.9558,0.9517,0.9522,0.9451,0.9383,0.9288,0.9269,0.9254,0.9275,0.9183,0.9188,0.9193,0.931,0.9327,0.9342,0,0,0,0,0,0,0.9989,0.9863,0.9816,0.9807,0.9745,0.9636,0.9641,0.9579,0.9527,0.9518,0.941,0.9388,0.9372,0.9321,0.9302,0.9286,0.9226,0.9229,0.932,0.9335,0.9349,0.936,0.9198,0,0,0,0,0,1.0018,0.9988,0.9879,0.9881,0.9853,0.9753,0.9727,0.9664,0.9596,0.9569,0.9495,0.9431,0.9385,0.9358,0.9311,0.9308,0.9282,0.9315,0.9329,0.934,0.9343,0.9335,0.9347,0.9213,0.9213,0.9212,0,0,1.0077,1.0004,0.9991,0.9906,0.9851,0.982,0.9731,0.9703,0.9678,0.9564,0.9533,0.9478,0.9398,0.9382,0.9372,0.9339,0.9374,0.9347,0.9357,0.9352,0.9341,0.9354,0.9365,0.9216,0.9215,0.9215,0,0,1.0167,1.0111,1.0105,1.0052,0.997,0.9903,0.9902,0.9802,0.976,0.9728,0.9641,0.961,0.9535,0.9481,0.9444,0.9513,0.9448,0.9501,0.957,0.9563,0.9574,0.9582,0.9604,0.9614,0.9504,0.9505,0.9505,0,1.0249,1.0201,1.0109,1.0085,1.0049,0.9946,0.9938,0.989,0.9797,0.9774,0.9739,0.9642,0.9581,0.955,0.9567,0.9541,0.9534,0.9511,0.958,0.9588,0.9595,0.9614,0.9623,0.9511,0.9511,0.951,0.9509,0,1.0305,1.0273,1.0277,1.0191,1.0155,1.014,1.0044,1.0019,0.996,0.9896,0.9863,0.9787,0.9721,0.971,0.9652,0.967,0.9652,0.9601,0.9538,0.9616,0.9632,0.9639,0.9521,0.9519,0.9517,0.9515,0,0,1.0474,1.0337,1.034,1.0298,1.02,1.0172,1.0151,1.0088,1.0067,1.0007,0.9984,0.9924,0.9874,0.9832,0.9767,0.9762,0.9819,0.971,0.9707,0.9731,0.9831,0.9868,0.9879,0.9776,0.9777,0.9778,0.9836,0,1.0546,1.0503,1.042,1.0403,1.037,1.0271,1.0252,1.0189,1.0129,1.0091,1.0024,0.9982,0.9922,0.9895,0.9886,0.9814,0.9837,0.9809,0.9751,0.975,0.9772,0.9888,0.9928,0.9987,0.9843,0.9844,0.9844,0,1.0624,1.057,1.055,1.0452,1.0435,1.042,1.0354,1.032,1.0246,1.0202,1.0156,1.0085,1.0055,1.0,0.9956,0.9939,0.991,0.9871,0.9871,0.986,0.9801,0.9877,1.0004,1.0012,0.9854,0.9853,0.9853,0,1.0746,1.0668,1.0645,1.0613,1.0499,1.0491,1.0443,1.0366,1.0333,1.0275,1.0252,1.0192,1.0158,1.0112,1.0025,0.9994,0.999,0.9928,0.995,0.9953,0.9952,0.9953,1.0073,0.9939,0.9939,0.9939,0.9939,0,1.0833,1.0824,1.0698,1.0684,1.067,1.0574,1.0562,1.0505,1.0437,1.0409,1.032,1.0295,1.0183,1.0145,1.0077,1.0049,1.0035,0.9997,0.9979,1.0004,1.0008,0.9982,0.9974,0.9941,0.9941,0.994,0.994,0,1.0966,1.0882,1.085,1.0745,1.0719,1.0713,1.0622,1.0603,1.0539,1.0503,1.0489,1.0387,1.0336,1.0246,1.017,1.0124,1.011,1.008,1.0135,1.0123,1.015,1.0148,1.0255,1.0263,1.0128,1.0129,1.013,0,1.1026,1.1017,1.0912,1.0887,1.0842,1.0803,1.0769,1.0673,1.0641,1.0555,1.0546,1.0489,1.0438,1.0362,1.0279,1.022,1.0186,1.0228,1.0177,1.0201,1.0184,1.0184,1.0181,1.0239,1.0241,1.0243,1.0244,0,1.1141,1.1099,1.1054,1.0994,1.0955,1.0903,1.0846,1.083,1.0721,1.0689,1.0637,1.0597,1.052,1.0463,1.0392,1.034,1.0273,1.0262,1.0263,1.0287,1.0318,1.0299,1.0164,1.0259,1.0257,1.0256,1.0255,1.0255,1.1237,1.1223,1.1147,1.1098,1.1045,1.0994,1.0971,1.0903,1.0858,1.0788,1.0735,1.0686,1.061,1.0507,1.046,1.0419,1.0388,1.0391,1.0391,1.0393,1.0402,1.0327,1.0406,1.0406,1.0405,1.0405,1.0404,0,1.1345,1.1291,1.1247,1.117,1.1132,1.1075,1.1008,1.0979,1.0938,1.0873,1.0825,1.0764,1.0709,1.0622,1.0559,1.0543,1.0511,1.053,1.0528,1.0517,1.0434,1.0438,1.0557,1.0557,1.0557,1.0557,1.0557,1.0557,1.1396,1.1369,1.1319,1.1264,1.1209,1.1161,1.1128,1.1079,1.1027,1.0963,1.0917,1.0862,1.0787,1.0718,1.0664,1.064,1.062,1.0648,1.0614,1.0538,1.0523,1.051,1.0512,1.0645,1.0645,1.0699,1.07,1.07]},{"header":{"parameterUnit":"m.s-1","parameterCategory":1,"la1":30.2991,"la2":30.254,"lo1":-89.0895,"lo2":-89.0444,"dy":0.0017,"dx":0.0017,"nx":28,"ny":28,"refTime":"2023-10-16T09:00:00:Z","depth":0,"parameterNumber":3,"parameterNumberName":"V-component_of_WINDS"},"data":[0,0,0,0,0,0,0,0,0,0,0,0,0,0,0,0,0,0,0,0,0,0,0,0,0,0,0,0,0,0,0,0,0,0,0,0,0,0,0,0,0,0,0,0,0,0,0,0,0,0,0,0,0,0,0,0,0,0,0.3708,0.3707,0,0.3642,0.3641,0.364,0.3561,0.356,0.3559,0.3557,0.3492,0.3491,0.3491,0,0,0,0,0,0,0,0,0,0,0,0,0,0.3766,0.3765,0.3708,0.3707,0.3706,0.3642,0.3641,0.364,0.3561,0.356,0.3558,0.3557,0.3492,0.3491,0.349,0,0,0,0,0,0,0,0,0,0,0,0,0,0.3724,0.3765,0.3708,0.3659,0.3654,0.3642,0.3641,0.364,0.3562,0.356,0.3558,0.3556,0.3492,0.3491,0.349,0.3521,0,0,0.3488,0.3487,0,0,0,0,0,0,0,0,0.3727,0.3722,0.3667,0.3662,0.3657,0.3608,0.3637,0.36,0.3562,0.3597,0.3557,0.3555,0.3532,0.3528,0.3519,0.3518,0.3516,0.3488,0.3487,0.3487,0.3486,0,0,0,0,0,0,0,0.373,0.3725,0.3682,0.3666,0.366,0.364,0.3632,0.363,0.3576,0.3594,0.3588,0.3581,0.3529,0.352,0.3517,0.3515,0.3488,0.3487,0.3486,0.3486,0.3533,0.3534,0,0,0,0,0,0,0.374,0.3728,0.3684,0.368,0.3688,0.3641,0.3632,0.3625,0.3575,0.3566,0.3582,0.3577,0.3523,0.3518,0.3515,0.3546,0.3487,0.3486,0.3485,0.3531,0.3533,0.3535,0,0,0,0,0,0,0.3741,0.3737,0.3686,0.3702,0.3694,0.3642,0.3635,0.3625,0.3616,0.3567,0.3557,0.3584,0.3521,0.3516,0.3519,0.3542,0.3485,0.3484,0.3529,0.3531,0.3534,0.361,0,0,0,0,0,0,0.3743,0.3738,0.3749,0.3703,0.3693,0.3693,0.3636,0.3625,0.3615,0.3608,0.3566,0.3557,0.3519,0.3521,0.3519,0.354,0.3484,0.3526,0.353,0.3533,0.3605,0.3615,0.3623,0,0,0,0,0,0.3746,0.3774,0.375,0.3746,0.3707,0.3694,0.3689,0.3645,0.3617,0.3628,0.3595,0.3558,0.354,0.3522,0.3519,0.354,0.3525,0.3529,0.3533,0.3601,0.3613,0.3623,0,0,0,0,0,0,0.3827,0.3768,0.374,0.3755,0.373,0.3681,0.3694,0.3659,0.3643,0.3637,0.3583,0.3574,0.3584,0.3562,0.3543,0.3566,0.3527,0.353,0.358,0.3591,0.36,0.3604,0.3483,0,0,0,0,0,0.3846,0.384,0.3789,0.3807,0.3796,0.3747,0.374,0.3707,0.368,0.367,0.3638,0.3613,0.3601,0.3595,0.3581,0.3601,0.359,0.3614,0.3623,0.3631,0.3634,0.3641,0.365,0.3548,0.3548,0.3548,0,0,0.3886,0.3853,0.3853,0.3822,0.3799,0.3794,0.3739,0.3737,0.3732,0.3669,0.367,0.3646,0.3614,0.3625,0.3629,0.3608,0.366,0.3636,0.3642,0.3642,0.3646,0.3655,0.3664,0.3551,0.355,0.355,0,0,0.3957,0.3932,0.3943,0.392,0.3885,0.3852,0.3855,0.381,0.3791,0.3791,0.3742,0.3736,0.3718,0.3697,0.3684,0.3743,0.3707,0.374,0.3787,0.3794,0.3802,0.3809,0.3829,0.3836,0.3744,0.3744,0.3744,0,0.4012,0.4002,0.3953,0.3953,0.394,0.3881,0.389,0.3871,0.3835,0.3827,0.3803,0.3777,0.3752,0.3756,0.377,0.3762,0.3762,0.3745,0.3805,0.3811,0.3817,0.3835,0.3843,0.3748,0.3748,0.3747,0.3747,0,0.407,0.4064,0.4077,0.4041,0.4029,0.4035,0.3985,0.3979,0.3947,0.3917,0.3916,0.3883,0.3861,0.3859,0.3829,0.3858,0.3846,0.3815,0.3774,0.3832,0.3848,0.3854,0.3754,0.3753,0.3751,0.375,0,0,0.4192,0.4126,0.4132,0.4114,0.407,0.4064,0.4065,0.4042,0.4038,0.4014,0.4013,0.3997,0.3967,0.3952,0.3918,0.3924,0.3971,0.3891,0.389,0.3906,0.3999,0.4022,0.4031,0.3946,0.3948,0.3948,0.4001,0,0.4254,0.4252,0.4207,0.4218,0.4211,0.4153,0.4154,0.4127,0.4097,0.4087,0.4054,0.4043,0.4005,0.3995,0.3998,0.3964,0.3988,0.396,0.3945,0.3945,0.3954,0.404,0.4065,0.4117,0.4007,0.4008,0.4009,0,0.4327,0.4305,0.4315,0.4268,0.4263,0.4265,0.4239,0.4229,0.4197,0.4174,0.4156,0.4117,0.4114,0.4076,0.407,0.4052,0.4042,0.4024,0.4025,0.4022,0.398,0.4038,0.4132,0.414,0.4019,0.4018,0.4017,0,0.4413,0.4386,0.4388,0.4374,0.432,0.4322,0.4299,0.4264,0.4253,0.423,0.4221,0.4199,0.4187,0.417,0.4125,0.4101,0.4124,0.4082,0.4105,0.4106,0.4113,0.4113,0.4206,0.4108,0.4108,0.4108,0.4108,0,0.4486,0.4495,0.4425,0.4427,0.4433,0.438,0.4388,0.436,0.4329,0.4323,0.4272,0.4268,0.4209,0.4198,0.4163,0.4162,0.4158,0.4139,0.413,0.4143,0.4146,0.4137,0.4132,0.411,0.4109,0.4109,0.4108,0,0.4584,0.4538,0.4536,0.4483,0.447,0.4478,0.4432,0.4431,0.4397,0.439,0.4386,0.4333,0.4317,0.427,0.4243,0.4219,0.4228,0.4211,0.4239,0.4233,0.4258,0.4256,0.4348,0.4356,0.4254,0.4255,0.4256,0,0.4634,0.4639,0.4586,0.4578,0.4557,0.4545,0.4532,0.4479,0.4467,0.4428,0.4431,0.4411,0.4391,0.4368,0.4327,0.4305,0.4286,0.4319,0.4282,0.4295,0.4285,0.4285,0.4284,0.4328,0.4329,0.433,0.4331,0,0.4727,0.4703,0.4686,0.466,0.4646,0.4624,0.4598,0.4595,0.4535,0.4524,0.4506,0.4491,0.4461,0.4441,0.4412,0.4388,0.4349,0.4343,0.4347,0.4361,0.4376,0.4367,0.426,0.4341,0.434,0.434,0.4339,0.4339,0.4801,0.4802,0.4764,0.4746,0.4721,0.4698,0.4693,0.4657,0.4641,0.4612,0.4582,0.4567,0.4531,0.4487,0.4466,0.4453,0.4433,0.4439,0.444,0.4442,0.4448,0.4379,0.4448,0.4447,0.4447,0.4447,0.4446,0,0.4891,0.4863,0.4847,0.4812,0.4797,0.4761,0.473,0.472,0.4707,0.4677,0.4658,0.4636,0.4615,0.4572,0.4547,0.4544,0.4526,0.4539,0.4539,0.4534,0.4468,0.4467,0.4555,0.4555,0.4555,0.4555,0.4555,0.4555,0.4935,0.4933,0.4905,0.4889,0.4861,0.4845,0.483,0.4808,0.4783,0.4761,0.4743,0.4714,0.4678,0.4649,0.4628,0.4615,0.4608,0.4627,0.4609,0.4549,0.4539,0.4529,0.4527,0.4626,0.4626,0.4675,0.4676,0.4676]}]]